Change the Weather History Date:

Monday, July 1, 2013

  Actual Average (KISN) Record (KISN)
Temperature  
Mean Temperature 68 °F 67 °F  
Max Temperature 80 °F 81 °F 98 °F (2003)
Min Temperature 55 °F 54 °F 42 °F (1951)
Degree Days  
Heating Degree Days 0 2  
Month to date heating degree days 2  
Since 1 June heating degree days 122  
Since 1 July heating degree days 2  
Cooling Degree Days 2 4  
Month to date cooling degree days 4  
Year to date cooling degree days 85  
Since 1 June cooling degree days 72  
Growing Degree Days 18 (Base 50)    
Moisture  
Dew Point 55 °F    
Average Humidity 65    
Maximum Humidity 88    
Minimum Humidity 45    
Precipitation  
Precipitation 0.00 in 0.09 in 4.82 in (1997)
Month to date precipitation 0.09  
Year to date precipitation 7.22  
Sea Level Pressure  
Sea Level Pressure 30.21 in    
Wind  
Wind Speed 7 mph (SE)    
Max Wind Speed 14 mph    
Max Gust Speed 18 mph    
Visibility 10 miles    
Events      
T = Trace of Precipitation, MM = Missing Value Source: NWS Daily Summary

Daily Weather History Graph

Daily Weather History Graph

Search for Another Location

Airport or City:

Trip Planner

Search our weather history database for the weather conditions in past years. The results will help you decide how hot, cold, wet, or windy it might be!

Date:

Astronomy

Jul. 01, 2013 Rise Set
Actual Time 5:58 AM CDT 9:54 PM CDT
Civil Twilight 5:18 AM CDT 10:35 PM CDT
Nautical Twilight 4:21 AM CDT 11:31 PM CDT
Astronomical Twilight 2:53 AM CDT 12:59 AM CDT
Moon 1:47 AM CDT (7/1) 3:57 PM CDT (7/1)
Length of Visible Light 17h 17m
Length of Day
15h 56m
Waning Crescent, 35% of the Moon is Illuminated
Jul 1
Waning Crescent
Jul 8
New
Jul 15
First Quarter
Jul 22
Full
Jul 29
Last Quarter

Hourly Weather History & Observations

Time (CDT) Temp. Heat Index Dew Point Humidity Pressure Visibility Wind Dir Wind Speed Gust Speed Precip Events Conditions
12:15 AM 57.2 °F - 51.8 °F 82% 30.21 in 10.0 mi ESE 8.1 mph - N/A   Clear
12:35 AM 57.2 °F - 51.8 °F 82% 30.21 in 10.0 mi ESE 8.1 mph - N/A   Clear
12:55 AM 59.0 °F - 51.8 °F 77% 30.21 in 10.0 mi ESE 8.1 mph - N/A   Clear
1:15 AM 59.0 °F - 51.8 °F 77% 30.21 in 10.0 mi ESE 6.9 mph - N/A   Clear
1:35 AM 59.0 °F - 51.8 °F 77% 30.22 in 10.0 mi ESE 6.9 mph - N/A   Clear
1:55 AM 59.0 °F - 51.8 °F 77% 30.22 in 10.0 mi ESE 5.8 mph - N/A   Clear
2:15 AM 57.2 °F - 51.8 °F 82% 30.22 in 10.0 mi East 5.8 mph - N/A   Partly Cloudy
2:35 AM 57.2 °F - 51.8 °F 82% 30.22 in 10.0 mi ESE 5.8 mph - N/A   Partly Cloudy
2:55 AM 57.2 °F - 51.8 °F 82% 30.22 in 10.0 mi East 4.6 mph - N/A   Clear
3:15 AM 57.2 °F - 51.8 °F 82% 30.22 in 10.0 mi ESE 3.5 mph - N/A   Clear
3:35 AM 55.4 °F - 51.8 °F 88% 30.22 in 10.0 mi East 3.5 mph - N/A   Clear
3:55 AM 55.4 °F - 50.0 °F 82% 30.22 in 10.0 mi Calm Calm - N/A   Clear
4:15 AM 57.2 °F - 50.0 °F 77% 30.22 in 10.0 mi Calm Calm - N/A   Clear
4:35 AM 55.4 °F - 50.0 °F 82% 30.22 in 10.0 mi Calm Calm - N/A   Clear
4:55 AM 57.2 °F - 50.0 °F 77% 30.22 in 10.0 mi Calm Calm - N/A   Clear
5:15 AM 55.4 °F - 50.0 °F 82% 30.22 in 10.0 mi East 3.5 mph - N/A   Scattered Clouds
5:35 AM 57.2 °F - 51.8 °F 82% 30.23 in 10.0 mi ESE 3.5 mph - N/A   Mostly Cloudy
5:55 AM 55.4 °F - 51.8 °F 88% 30.23 in 10.0 mi East 4.6 mph - N/A   Partly Cloudy
6:15 AM 55.4 °F - 51.8 °F 88% 30.23 in 10.0 mi ESE 4.6 mph - N/A   Partly Cloudy
6:35 AM 55.4 °F - 51.8 °F 88% 30.23 in 10.0 mi Calm Calm - N/A   Scattered Clouds
6:55 AM 55.4 °F - 51.8 °F 88% 30.24 in 10.0 mi Calm Calm - N/A   Partly Cloudy
7:15 AM 57.2 °F - 53.6 °F 88% 30.24 in 10.0 mi ESE 3.5 mph - N/A   Partly Cloudy
7:35 AM 59.0 °F - 53.6 °F 82% 30.23 in 10.0 mi ESE 4.6 mph - N/A   Mostly Cloudy
7:55 AM 59.0 °F - 53.6 °F 82% 30.24 in 10.0 mi ESE 6.9 mph - N/A   Partly Cloudy
8:15 AM 62.6 °F - 55.4 °F 77% 30.24 in 10.0 mi ESE 6.9 mph - N/A   Clear
8:35 AM 62.6 °F - 57.2 °F 82% 30.24 in 10.0 mi ESE 5.8 mph - N/A   Clear
8:55 AM 64.4 °F - 57.2 °F 77% 30.24 in 10.0 mi ESE 6.9 mph - N/A   Clear
9:15 AM 66.2 °F - 59.0 °F 78% 30.24 in 10.0 mi ESE 5.8 mph - N/A   Clear
9:35 AM 68.0 °F - 59.0 °F 73% 30.24 in 10.0 mi East 4.6 mph - N/A   Clear
9:55 AM 71.6 °F - 59.0 °F 64% 30.24 in 10.0 mi SSE 6.9 mph - N/A   Clear
10:15 AM 73.4 °F - 59.0 °F 61% 30.23 in 10.0 mi South 9.2 mph - N/A   Clear
10:35 AM 73.4 °F - 59.0 °F 61% 30.23 in 10.0 mi South 10.4 mph - N/A   Clear
10:55 AM 75.2 °F - 59.0 °F 57% 30.23 in 10.0 mi South 8.1 mph - N/A   Clear
11:15 AM 75.2 °F - 57.2 °F 53% 30.23 in 10.0 mi South 11.5 mph 17.3 mph N/A   Clear
11:35 AM 75.2 °F - 59.0 °F 57% 30.23 in 10.0 mi South 10.4 mph - N/A   Clear
11:55 AM 75.2 °F - 59.0 °F 57% 30.23 in 10.0 mi South 8.1 mph - N/A   Clear
12:15 PM 77.0 °F - 59.0 °F 54% 30.22 in 10.0 mi South 13.8 mph 18.4 mph N/A   Clear
12:35 PM 77.0 °F - 57.2 °F 50% 30.22 in 10.0 mi South 11.5 mph 18.4 mph N/A   Clear
12:55 PM 77.0 °F - 59.0 °F 54% 30.22 in 10.0 mi SSE 11.5 mph 18.4 mph N/A   Clear
1:15 PM 77.0 °F - 59.0 °F 54% 30.21 in 10.0 mi SE 10.4 mph - N/A   Partly Cloudy
1:35 PM 77.0 °F - 57.2 °F 50% 30.21 in 10.0 mi South 8.1 mph - N/A   Clear
1:55 PM 78.8 °F - 59.0 °F 51% 30.21 in 10.0 mi South 8.1 mph - N/A   Partly Cloudy
2:15 PM 80.6 °F 81.1 °F 59.0 °F 48% 30.21 in 10.0 mi SE 11.5 mph - N/A   Clear
2:35 PM 80.6 °F 80.8 °F 57.2 °F 45% 30.21 in 10.0 mi SE 12.7 mph - N/A   Scattered Clouds
2:55 PM 78.8 °F - 57.2 °F 47% 30.20 in 10.0 mi SE 11.5 mph 18.4 mph N/A   Mostly Cloudy
3:15 PM 77.0 °F - 57.2 °F 50% 30.20 in 10.0 mi South 10.4 mph - N/A   Partly Cloudy
3:35 PM 80.6 °F 80.8 °F 57.2 °F 45% 30.20 in 10.0 mi SSE 11.5 mph 17.3 mph N/A   Partly Cloudy
3:55 PM 77.0 °F - 59.0 °F 54% 30.19 in 10.0 mi SSE 6.9 mph - N/A   Partly Cloudy
4:15 PM 77.0 °F - 57.2 °F 50% 30.19 in 10.0 mi SSE 9.2 mph - N/A   Scattered Clouds
4:35 PM 77.0 °F - 57.2 °F 50% 30.19 in 10.0 mi SSE 9.2 mph - N/A   Scattered Clouds
4:55 PM 77.0 °F - 57.2 °F 50% 30.19 in 10.0 mi SE 6.9 mph - N/A   Mostly Cloudy
5:15 PM 77.0 °F - 57.2 °F 50% 30.19 in 10.0 mi SSE 8.1 mph - N/A   Scattered Clouds
5:35 PM 78.8 °F - 57.2 °F 47% 30.19 in 10.0 mi SSE 11.5 mph - N/A   Partly Cloudy
5:55 PM 78.8 °F - 57.2 °F 47% 30.18 in 10.0 mi SE 8.1 mph - N/A   Clear
6:15 PM 78.8 °F - 57.2 °F 47% 30.18 in 10.0 mi South 8.1 mph 16.1 mph N/A   Clear
6:35 PM 78.8 °F - 57.2 °F 47% 30.17 in 10.0 mi SE 6.9 mph - N/A   Clear
6:55 PM 77.0 °F - 57.2 °F 50% 30.17 in 10.0 mi SE 10.4 mph - N/A   Clear
7:15 PM 77.0 °F - 57.2 °F 50% 30.17 in 10.0 mi SE 6.9 mph - N/A   Clear
7:35 PM 77.0 °F - 59.0 °F 54% 30.17 in 10.0 mi SE 8.1 mph - N/A   Clear
8:15 PM 75.2 °F - 59.0 °F 57% 30.17 in 10.0 mi SE 9.2 mph - N/A   Clear
8:35 PM 73.4 °F - 59.0 °F 61% 30.17 in 7.0 mi SE 8.1 mph - N/A   Clear
8:55 PM 73.4 °F - 57.2 °F 57% 30.16 in 10.0 mi SSE 8.1 mph - N/A   Clear
9:15 PM 71.6 °F - 55.4 °F 57% 30.16 in 10.0 mi SSE 8.1 mph - N/A   Clear
9:35 PM 71.6 °F - 55.4 °F 57% 30.16 in 10.0 mi SSE 8.1 mph - N/A   Clear
9:55 PM 68.0 °F - 55.4 °F 64% 30.16 in 10.0 mi SSE 8.1 mph - N/A   Clear
10:15 PM 68.0 °F - 53.6 °F 60% 30.16 in 10.0 mi SE 9.2 mph - N/A   Clear
10:35 PM 66.2 °F - 53.6 °F 64% 30.16 in 10.0 mi SSE 10.4 mph - N/A   Clear
10:55 PM 68.0 °F - 51.8 °F 56% 30.17 in 10.0 mi SSE 9.2 mph - N/A   Clear
11:15 PM 68.0 °F - 51.8 °F 56% 30.17 in 10.0 mi SSE 8.1 mph - N/A   Clear
11:35 PM 64.4 °F - 53.6 °F 68% 30.17 in 10.0 mi Calm Calm - N/A   Clear
11:55 PM 62.6 °F - 53.6 °F 72% 30.18 in 10.0 mi Calm Calm - N/A   Clear